Wind_Speed
56 52 50 49 45 48 58 67 75 82 86 89 96 102 103 103 101 93 87 90 90 85 79 74 67 61 58 59 58 55 50 49 48 41 39 39 39 39 38 37 34 33 30 30 32
58 50 43 39 36 32 36 45 56 67 74 81 84 93 105 104 102 98 97 90 92 90 84 78 71 65 59 56 58 55 51 49 51 43 42 40 39 37 38 38 38 35 33 31 32
61 53 44 36 30 29 27 33 41 51 60 67 76 81 93 105 104 104 98 94 92 93 88 81 74 68 62 57 56 55 54 50 51 51 47 43 42 41 42 39 37 35 35 36 35
65 57 47 38 30 24 24 26 32 41 51 58 67 75 82 93 107 105 99 97 93 93 90 84 78 71 64 59 55 58 57 52 48 54 54 50 47 44 43 41 41 40 38 39 38
72 63 52 41 31 23 19 22 28 33 43 52 62 71 76 83 94 108 107 99 94 93 93 86 80 74 69 63 58 59 58 55 49 51 50 50 49 47 45 44 43 42 40 40 38
76 68 57 47 34 25 15 16 21 26 35 47 56 65 72 80 89 105 112 103 98 95 93 89 84 78 72 67 61 57 60 56 52 50 46 43 43 44 45 44 44 42 40 40 38
79 71 61 51 42 31 19 13 16 22 28 38 50 58 66 75 86 98 111 105 100 95 93 92 87 81 73 69 62 56 60 56 53 51 48 44 43 45 45 45 44 42 40 37 35
80 76 64 55 47 38 27 19 14 16 25 30 38 50 60 68 83 94 108 108 100 95 93 92 88 82 76 69 63 57 59 54 52 51 48 46 48 45 47 44 41 38 37 35 35
78 78 69 58 46 37 28 23 19 13 20 25 31 36 51 64 77 90 103 108 102 97 93 93 89 82 75 70 65 59 54 56 55 52 50 49 50 47 45 42 39 38 38 37 37
76 79 71 63 52 41 32 24 19 17 13 18 22 32 42 61 71 87 100 107 102 99 93 92 88 82 74 69 64 59 57 58 58 54 51 50 49 46 43 42 42 41 40 40 40
75 79 76 68 57 44 36 31 25 17 4 8 16 28 37 54 69 86 96 104 102 97 91 87 85 81 76 72 69 67 63 59 57 55 52 51 49 48 45 46 45 45 44 43 43
72 78 80 74 67 52 42 36 31 22 8 4 11 22 33 47 68 83 93 104 102 96 90 87 86 83 78 73 71 69 65 60 58 56 53 52 53 48 47 47 47 47 47 48 48
69 74 81 78 72 62 50 40 35 29 18 7 10 20 29 46 66 79 90 102 101 94 90 85 86 83 79 75 72 69 66 63 60 58 55 54 54 51 51 51 51 51 52 52 53
68 70 76 81 75 69 57 46 39 35 27 15 10 19 31 47 62 74 86 98 98 94 90 85 85 84 80 75 72 69 67 65 63 61 58 56 55 53 53 55 57 58 58 58 58
68 69 70 76 78 71 64 56 46 40 32 21 13 17 29 45 57 69 83 93 95 92 87 82 80 82 79 76 72 70 68 68 67 64 60 57 55 57 57 57 60 61 63 63 64
67 67 67 68 73 73 67 62 56 45 35 28 15 15 25 39 51 64 77 85 89 90 87 83 79 80 80 77 74 71 70 70 68 66 61 61 58 60 61 63 64 66 68 68 69
62 64 66 66 67 71 70 66 60 49 41 33 23 12 17 29 41 56 69 78 84 85 83 80 76 76 79 78 75 72 71 70 68 66 62 66 64 62 64 65 66 68 70 71 74
57 60 61 64 63 65 68 70 62 58 50 41 31 21 10 17 30 44 60 69 75 80 82 78 74 70 72 75 74 72 70 69 68 67 66 68 64 64 67 68 69 71 74 76 79
50 51 54 59 61 60 62 65 67 60 55 49 38 30 20 12 20 33 47 57 65 70 75 76 73 67 67 71 74 73 70 71 69 69 68 67 66 68 70 73 75 77 79 81 83
42 44 47 52 55 56 55 57 59 63 59 55 50 41 30 21 14 23 37 47 53 58 65 70 69 67 64 63 69 73 74 72 71 70 69 69 70 72 74 77 79 81 83 85 87
36 40 41 45 47 51 52 51 53 53 56 59 53 49 42 32 23 17 25 36 40 44 52 61 66 65 62 59 59 65 72 73 73 72 73 74 75 77 79 80 81 82 82 82 81
32 36 36 39 40 41 41 45 46 47 48 49 52 51 46 39 30 20 17 24 31 30 35 48 58 61 60 58 56 57 59 63 67 70 72 73 72 74 74 76 78 78 78 77 77
25 29 32 31 33 32 37 35 38 39 41 41 43 43 44 41 33 25 18 16 19 22 23 30 43 56 61 61 61 60 59 59 58 60 62 66 66 70 72 72 71 73 75 78 81
22 25 26 27 28 25 27 29 31 32 32 33 32 33 33 33 32 29 21 14 13 14 15 17 23 32 42 51 56 58 61 62 61 61 61 60 64 67 69 72 75 78 81 80 76
24 22 22 22 22 19 20 22 23 25 26 26 25 24 24 22 21 21 21 19 15 8 8 14 19 22 27 32 38 45 52 57 62 64 65 69 69 71 68 67 62 57 56 57 59
30 30 23 19 18 20 15 18 18 19 18 18 17 18 18 16 14 11 9 7 6 5 4 6 7 11 18 23 27 31 35 36 39 43 41 42 45 51 52 54 55 58 60 64 67
38 37 33 29 24 22 21 17 16 16 20 17 14 12 11 12 10 8 9 8 9 9 10 11 14 16 19 21 23 27 33 35 38 41 45 49 53 57 60 63 66 68 71 74 77
Wind_Direction
322 314 305 295 283 265 256 250 247 245 243 239 235 230 229 227 226 223 222 222 221 221 222 223 223 221 221 228 225 225 228 228 223 222 223 228 232 233 237 240 241 244 250 255 257
336 330 322 311 296 278 258 249 241 239 239 237 234 229 225 225 223 221 218 219 219 218 219 221 222 222 221 223 224 225 226 225 222 222 220 227 233 234 235 239 241 247 253 257 258
346 344 338 330 313 295 273 254 241 236 234 232 231 227 223 221 219 218 216 216 217 216 217 218 220 221 222 220 224 222 223 226 224 218 220 223 230 231 236 242 246 246 251 256 258
355 353 349 345 333 315 288 262 248 238 231 228 226 225 221 219 216 216 215 213 215 215 215 216 218 219 220 221 222 219 221 223 224 223 228 232 234 235 238 241 246 248 252 256 259
0 359 356 354 347 326 300 269 250 239 233 229 225 221 219 215 213 212 213 211 212 213 213 213 215 217 219 220 220 221 220 221 222 227 230 233 236 236 239 243 248 249 253 256 261
4 2 0 0 356 346 322 278 259 246 234 226 223 223 218 213 209 208 209 208 208 211 211 211 214 215 218 218 219 220 219 221 222 226 228 234 236 238 242 245 247 250 254 258 262
6 6 4 3 360 356 352 318 266 247 238 228 221 221 217 210 206 206 206 206 206 208 209 210 211 213 215 216 218 220 220 223 224 227 233 237 238 239 244 245 246 250 255 254 257
8 9 9 7 4 357 353 340 309 251 235 232 224 221 215 208 204 203 203 205 203 206 208 209 210 212 214 214 216 220 220 223 225 228 233 235 238 239 242 245 247 249 248 248 256
9 11 11 10 6 2 356 345 331 293 238 235 223 217 211 204 202 201 201 202 202 204 206 208 209 210 211 213 215 217 220 223 224 227 230 233 237 238 241 244 245 247 250 252 257
10 14 14 14 11 8 7 2 338 314 265 227 219 207 203 201 201 199 199 200 201 203 206 207 207 208 210 213 215 218 220 223 224 225 227 232 236 239 239 242 245 248 253 257 259
11 13 16 17 18 15 16 13 7 352 312 212 198 197 195 196 197 197 197 199 199 201 205 206 207 208 210 212 214 216 218 222 225 226 231 232 235 237 241 245 248 250 251 255 259
13 15 17 19 20 23 23 24 22 18 23 145 170 183 191 194 192 194 195 197 198 200 203 205 206 207 209 211 214 216 219 222 225 227 230 233 238 238 241 245 246 251 253 257 262
18 18 18 21 22 24 27 29 29 34 42 77 149 175 185 186 189 192 193 196 198 199 201 204 206 208 209 211 214 216 219 222 225 227 230 234 239 240 243 246 248 251 255 259 264
21 20 23 22 24 25 27 29 37 37 42 62 121 155 175 180 186 191 192 195 198 199 200 203 205 207 209 212 214 216 219 223 226 228 233 237 239 243 247 249 252 255 258 262 265
23 23 24 26 28 27 28 33 35 40 41 57 99 148 173 179 185 189 193 195 198 199 201 204 206 209 211 212 215 218 221 223 227 230 234 239 240 246 248 252 255 259 261 264 267
22 25 24 28 30 31 31 34 38 39 43 54 80 134 168 183 185 188 193 195 198 200 201 204 206 208 211 214 217 219 223 225 228 232 235 240 241 248 249 253 257 261 263 266 269
22 26 26 26 29 31 34 38 40 43 47 53 64 105 158 179 189 190 193 196 199 201 203 205 208 211 212 215 218 222 226 229 232 235 238 242 244 248 254 256 259 263 267 270 273
23 23 25 26 28 31 33 39 42 45 50 54 57 70 111 170 186 193 195 198 199 203 205 208 211 214 216 218 221 224 228 232 236 239 241 245 248 251 256 262 264 268 270 272 274
20 23 22 24 27 30 34 37 40 45 50 56 58 61 69 131 176 187 194 200 203 206 209 211 213 216 218 221 224 228 232 235 237 241 245 249 253 256 259 263 265 268 270 273 276
17 17 22 22 23 26 34 38 41 41 46 53 56 61 71 83 131 173 189 197 204 208 212 214 215 218 221 225 228 231 235 239 242 245 249 253 256 259 261 263 267 270 273 275 277
9 11 18 20 22 24 27 34 40 43 46 46 53 59 62 74 92 135 176 191 200 208 213 216 218 221 225 229 231 234 237 241 245 248 252 254 257 260 262 266 269 272 274 277 280
2 4 8 13 17 23 24 31 34 39 45 49 50 55 61 68 75 102 141 179 196 204 210 216 220 225 228 231 235 237 240 243 247 250 253 255 259 262 265 267 270 273 275 277 278
350 357 360 1 8 18 18 24 31 34 40 45 49 53 57 63 72 85 109 147 178 198 207 215 222 227 231 235 239 242 245 249 251 254 256 258 260 264 267 270 271 272 274 276 279
329 341 349 353 354 4 15 18 20 23 33 34 43 49 54 58 63 74 86 112 152 179 196 210 222 228 233 237 241 245 249 252 255 257 259 262 262 265 268 269 272 273 275 275 280
310 322 332 341 344 351 1 6 12 18 16 20 26 35 44 54 57 65 75 82 92 124 191 216 227 229 231 233 238 243 247 251 254 257 260 263 266 267 270 271 272 274 273 275 279
293 305 309 316 326 330 339 349 354 1 10 9 11 13 17 27 34 55 53 65 84 104 132 175 198 225 240 244 248 250 251 254 257 260 260 258 264 266 271 273 276 276 276 276 277
290 286 295 302 302 307 311 313 320 336 342 339 339 344 351 351 354 347 342 334 323 308 292 268 253 251 252 254 258 265 257 255 258 260 261 265 268 269 270 272 274 276 278 279 280
Height
10571 10549 10530 10515 10507 10499 10495 10495 10498 10503 10510 10522 10538 10556 10572 10591 10610 10632 10650 10656 10672 10687 10700 10711 10722 10733 10742 10751 10760 10767 10775 10784 10791 10797 10800 10803 10807 10811 10814 10816 10820 10823 10825 10825 10825
10553 10531 10512 10497 10486 10481 10476 10474 10476 10480 10486 10496 10509 10525 10545 10565 10591 10613 10622 10644 10656 10672 10687 10700 10713 10724 10734 10745 10754 10762 10771 10775 10784 10790 10795 10798 10801 10806 10808 10811 10815 10818 10819 10820 10820
10539 10517 10497 10484 10474 10466 10462 10460 10460 10463 10467 10475 10486 10501 10518 10541 10569 10580 10607 10625 10641 10658 10675 10689 10703 10716 10727 10737 10748 10757 10763 10769 10776 10784 10789 10792 10797 10800 10804 10807 10811 10813 10813 10814 10815
10529 10507 10488 10474 10465 10458 10452 10449 10449 10450 10453 10458 10467 10481 10497 10520 10544 10567 10591 10609 10629 10645 10662 10679 10694 10708 10720 10730 10740 10748 10756 10764 10771 10778 10783 10788 10791 10795 10798 10803 10805 10807 10808 10808 10808
10522 10500 10483 10469 10460 10452 10446 10442 10440 10439 10441 10446 10452 10462 10480 10500 10525 10549 10568 10595 10616 10633 10650 10669 10684 10698 10710 10720 10731 10741 10748 10757 10765 10772 10777 10781 10785 10789 10793 10796 10798 10800 10802 10802 10803
10519 10498 10479 10466 10457 10449 10442 10436 10433 10431 10431 10433 10440 10451 10467 10486 10506 10525 10551 10576 10599 10617 10638 10657 10672 10687 10700 10711 10722 10733 10741 10749 10757 10764 10770 10775 10780 10784 10785 10790 10792 10794 10795 10796 10797
10519 10499 10479 10464 10453 10446 10439 10434 10429 10426 10424 10426 10431 10439 10454 10471 10491 10511 10537 10562 10587 10606 10626 10643 10661 10677 10694 10704 10716 10726 10735 10744 10752 10758 10764 10769 10774 10776 10780 10782 10785 10788 10789 10790 10791
10522 10501 10483 10465 10452 10443 10437 10431 10426 10422 10419 10419 10424 10431 10444 10461 10479 10500 10524 10551 10577 10598 10617 10635 10652 10669 10682 10699 10709 10720 10730 10740 10747 10752 10758 10764 10764 10771 10772 10775 10779 10781 10782 10784 10785
10529 10508 10488 10471 10457 10446 10436 10428 10423 10418 10416 10416 10420 10427 10437 10454 10472 10491 10515 10541 10567 10588 10606 10625 10643 10662 10679 10692 10703 10714 10726 10733 10738 10745 10751 10756 10758 10763 10767 10771 10773 10774 10775 10777 10778
10533 10516 10498 10479 10462 10449 10439 10431 10423 10416 10412 10414 10418 10425 10433 10448 10467 10485 10508 10533 10559 10580 10600 10617 10637 10657 10675 10687 10702 10711 10717 10723 10730 10738 10744 10749 10752 10758 10762 10765 10766 10768 10769 10770 10771
10537 10521 10504 10487 10471 10455 10444 10433 10425 10418 10414 10414 10418 10424 10434 10446 10462 10482 10504 10529 10554 10578 10598 10618 10637 10654 10667 10678 10689 10698 10707 10716 10725 10733 10739 10743 10747 10750 10757 10758 10761 10763 10763 10764 10764
10545 10527 10511 10492 10476 10461 10448 10438 10428 10422 10418 10418 10420 10426 10435 10446 10461 10482 10504 10526 10550 10573 10596 10613 10631 10646 10659 10671 10682 10692 10703 10712 10720 10726 10732 10738 10740 10747 10750 10750 10754 10755 10755 10756 10756
10555 10537 10518 10503 10485 10470 10458 10447 10436 10429 10425 10424 10425 10430 10439 10449 10464 10483 10504 10524 10547 10571 10591 10608 10626 10641 10653 10665 10676 10687 10697 10705 10713 10718 10726 10730 10734 10741 10742 10744 10746 10746 10747 10747 10747
10566 10551 10533 10515 10498 10483 10470 10459 10449 10440 10436 10433 10434 10438 10446 10456 10471 10488 10508 10528 10548 10568 10587 10603 10620 10635 10648 10661 10672 10682 10692 10699 10706 10712 10719 10724 10730 10734 10735 10737 10737 10738 10738 10738 10738
10577 10564 10549 10533 10515 10500 10486 10473 10463 10454 10450 10446 10447 10451 10459 10467 10479 10493 10510 10529 10549 10570 10590 10606 10620 10635 10647 10658 10668 10678 10686 10692 10698 10706 10713 10719 10724 10725 10728 10728 10728 10727 10727 10728 10727
10589 10576 10564 10551 10537 10520 10503 10489 10478 10471 10465 10461 10461 10465 10471 10480 10489 10501 10516 10533 10551 10569 10586 10600 10614 10629 10641 10653 10663 10672 10679 10685 10692 10701 10711 10711 10717 10716 10719 10719 10719 10717 10716 10716 10715
10599 10587 10576 10565 10554 10541 10524 10508 10497 10490 10482 10478 10477 10481 10486 10493 10502 10512 10525 10541 10558 10575 10591 10603 10616 10627 10638 10649 10659 10668 10674 10681 10688 10697 10704 10701 10709 10709 10708 10709 10710 10707 10706 10705 10703
10609 10598 10588 10578 10568 10556 10545 10531 10519 10507 10499 10495 10493 10494 10498 10504 10512 10523 10535 10547 10561 10576 10590 10605 10618 10630 10641 10649 10657 10664 10671 10677 10683 10689 10693 10693 10703 10701 10697 10696 10698 10697 10695 10693 10689
10617 10609 10600 10590 10581 10571 10561 10551 10542 10530 10520 10513 10510 10508 10509 10514 10521 10531 10544 10558 10570 10582 10595 10606 10618 10629 10639 10646 10654 10661 10667 10671 10676 10680 10685 10689 10692 10691 10691 10686 10684 10683 10681 10680 10677
10625 10619 10610 10602 10593 10585 10576 10567 10559 10551 10541 10532 10525 10522 10522 10525 10531 10539 10551 10564 10577 10588 10598 10609 10620 10628 10636 10644 10651 10656 10661 10667 10671 10675 10679 10682 10682 10680 10679 10675 10673 10671 10668 10666 10661
10631 10625 10617 10610 10603 10596 10590 10581 10574 10568 10561 10554 10546 10540 10537 10538 10543 10551 10560 10571 10583 10593 10601 10611 10619 10627 10634 10641 10646 10652 10657 10661 10664 10669 10669 10671 10671 10668 10665 10664 10663 10659 10655 10650 10646
10635 10630 10625 10618 10612 10606 10601 10595 10588 10581 10576 10571 10567 10562 10558 10555 10556 10562 10569 10578 10587 10595 10602 10611 10619 10626 10633 10638 10642 10645 10648 10652 10656 10658 10660 10660 10663 10652 10654 10653 10649 10646 10641 10636 10632
10638 10634 10630 10625 10620 10614 10610 10605 10600 10595 10589 10585 10582 10579 10577 10575 10574 10575 10579 10585 10591 10599 10605 10611 10617 10622 10627 10632 10635 10639 10641 10643 10645 10647 10648 10648 10648 10641 10642 10641 10636 10631 10626 10622 10616
10639 10636 10632 10629 10625 10621 10617 10613 10609 10606 10603 10599 10595 10592 10591 10590 10589 10589 10590 10593 10596 10601 10605 10610 10614 10618 10623 10626 10629 10632 10634 10635 10637 10636 10635 10637 10633 10631 10629 10625 10621 10617 10612 10607 10603
10639 10636 10633 10631 10628 10625 10622 10618 10615 10612 10610 10607 10606 10603 10601 10600 10600 10600 10601 10602 10603 10605 10607 10610 10612 10614 10616 10619 10621 10622 10623 10625 10624 10625 10625 10621 10620 10615 10615 10611 10606 10602 10597 10593 10588
10636 10635 10632 10630 10628 10627 10624 10621 10619 10617 10615 10613 10611 10610 10609 10608 10607 10607 10606 10606 10607 10608 10610 10611 10612 10613 10614 10615 10616 10616 10616 10616 10614 10614 10613 10611 10605 10604 10600 10597 10593 10588 10583 10577 10571
10630 10630 10628 10626 10625 10625 10623 10622 10620 10618 10616 10614 10614 10612 10611 10611 10610 10610 10610 10610 10610 10610 10610 10610 10610 10611 10611 10611 10611 10608 10607 10607 10604 10602 10601 10598 10593 10588 10586 10582 10577 10571 10565 10560 10554